Liberia, Costa Rica

10:47 PM CST on January 22, 2017 (GMT -0600)
Daniel Oduber Quiros International

Weather History for MRLB - August, 2014

Change the Weather History Date:

Monday, August 11, 2014

  Actual Average Record
Temperature  
Mean Temperature 82 °F -  
Max Temperature 92 °F 86 °F 94 °F (2013)
Min Temperature 72 °F 74 °F 71 °F (2013)
Cooling Degree Days 17    
Growing Degree Days 32 (Base 50)    
Moisture  
Dew Point 72 °F    
Average Humidity 67    
Maximum Humidity 98    
Minimum Humidity 41    
Precipitation  
Precipitation 0.00 in - - ()
Sea Level Pressure  
Sea Level Pressure 29.85 in    
Wind  
Wind Speed 3 mph ()    
Max Wind Speed 9 mph    
Max Gust Speed -    
Visibility 7.4 miles    
Events Fog , Rain    
Averages and records for this station are not official NWS values.
T = Trace of Precipitation, MM = Missing Value Source: Averaged Metar Reports

Daily Weather History Graph

Daily Weather History Graph

Search for Another Location

Airport or City:

Trip Planner

Search our weather history database for the weather conditions in past years. The results will help you decide how hot, cold, wet, or windy it might be!

Date:

Astronomy

Aug. 11, 2014 Rise Set
Actual Time 5:32 AM CST 6:02 PM CST
Civil Twilight 5:10 AM CST 6:24 PM CST
Nautical Twilight 4:44 AM CST 6:49 PM CST
Astronomical Twilight 4:18 AM CST 7:15 PM CST
Moon 6:56 PM CST (8/11) 6:16 AM CST (8/11)
Length of Visible Light 13h 13m
Length of Day
12h 30m
Full, 98% of the Moon is Illuminated
Aug 11
Full
Aug 17
Last Quarter
Aug 25
New
Sep 2
First Quarter
Sep 8
Full

Hourly Weather History & Observations

Time (CST) Temp. Heat Index Dew Point Humidity Pressure Visibility Wind Dir Wind Speed Gust Speed Precip Events Conditions
6:00 AM 72 °F - 72 °F 98% 29.88 in 6 mi Calm Calm - - Fog Patches of Fog
6:00 AM 73.4 °F - 71.6 °F 94% 29.85 in 6.2 mi Calm Calm - N/A Fog Patches of Fog
7:00 AM 75.2 °F - 73.4 °F 94% 29.87 in 6.2 mi NNE 3.5 mph - N/A Fog Patches of Fog
8:00 AM 80.6 °F 87.1 °F 77.0 °F 89% 29.89 in - Calm Calm - N/A   Clear
9:00 AM 84 °F - 75 °F 68% 29.86 in 12 mi West 3.5 mph - -   Overcast
9:00 AM 84.2 °F 92.3 °F 75.2 °F 74% 29.90 in 6.2 mi West 3.5 mph - N/A   Mostly Cloudy
10:00 AM 84.2 °F 92.3 °F 75.2 °F 74% 29.89 in 6.2 mi SSE 3.5 mph - N/A   Scattered Clouds
11:12 AM 89.6 °F 96.2 °F 71.6 °F 55% 29.86 in 6.2 mi East 6.9 mph - N/A   Scattered Clouds
12:00 PM 90 °F - 69 °F 41% 29.89 in 12 mi East 8.1 mph - -   Overcast
12:00 PM 89.6 °F 94.7 °F 69.8 °F 52% 29.86 in 6.2 mi East 8.1 mph - N/A   Scattered Clouds
1:00 PM 91.4 °F 95.4 °F 68.0 °F 46% 29.84 in 6.2 mi East 9.2 mph - N/A   Mostly Cloudy
2:00 PM 89.6 °F 93.4 °F 68.0 °F 49% 29.82 in 6.2 mi ENE 9.2 mph - N/A   Mostly Cloudy
3:00 PM 89 °F - 69 °F 41% 29.85 in 12 mi East 8.1 mph - -   Overcast
3:00 PM 87.8 °F 91.4 °F 68.0 °F 52% 29.81 in 6.2 mi East 8.1 mph - N/A   Mostly Cloudy
4:00 PM 87.8 °F 91.4 °F 68.0 °F 52% 29.80 in 6.2 mi ENE 6.9 mph - N/A   Mostly Cloudy
5:00 PM 89.6 °F 94.7 °F 69.8 °F 52% 29.80 in 6.2 mi North 2.3 mph - N/A   Scattered Clouds
6:00 PM 84 °F - 74 °F 64% 29.84 in 12 mi SW 8.1 mph - -   Overcast
6:00 PM 84.2 °F 90.9 °F 73.4 °F 70% 29.81 in 6.2 mi SW 8.1 mph - N/A   Scattered Clouds
6:30 PM 82.4 °F 88.2 °F 73.4 °F 74% 29.85 in 6.2 mi SSE 4.6 mph - N/A Rain Rain
7:00 PM 78.8 °F - 75.2 °F 89% - 6.2 mi Calm Calm - N/A Rain Light Rain
8:00 PM 78.8 °F - 75.2 °F 89% 29.88 in 6.2 mi Calm Calm - N/A   Mostly Cloudy